Flag for Germany Past Weather in Rheda-Wiedenbrück, North Rhine-Westphalia, Germany — Yesterday and Last 2 Weeks

Now
73 °F

Thundershowers. Clear.


Feels Like: 76 °F
Forecast: 65 / 90 °F
Wind: 6 mph from Southeast

Location: Paderborn / Lippstadt

Current Time: Aug 27, 2016 at 10:43:02 PM

Latest Report: Aug 27, 2016 at 9:50 PM


Visibility: N/A

Pressure: 30.01 "Hg

Humidity: 61%

Dew Point: 59 °F

Location of Rheda-WiedenbrückLocation

Past Weather in Rheda-Wiedenbrück — Graph

°F

Rheda-Wiedenbrück Temperature Yesterday

Maximum temperature yesterday: 90 °F (at 12:20 PM)
Minimum temperature yesterday: 66 °F (at 12:50 AM)
Average temperature yesterday: 81 °F

High & Low Weather Summary for the Past Weeks

 TemperatureHumidityPressure
High91 °F (Aug 25, 4:20 PM)100% (Aug 27, 5:20 AM)30.36 "Hg (Aug 27, 5:20 AM)
Low46 °F (Aug 16, 6:50 AM)17% (Aug 25, 4:50 PM)29.80 "Hg (Aug 18, 3:50 PM)
Average67 °F64%30.09 "Hg
* Reported Aug 12 9:20 PM — Aug 27 9:20 PM, Rheda-Wiedenbrück, Weather by CustomWeather, © 2016

Note: Actual official high and low records may vary slightly from our data, if they occured in-between our weather recording intervals... More about our weather records

Advertising

Rheda-Wiedenbrück Weather History for the Previous 24 Hours

Scroll right to see more
 ConditionsComfort  
Time TempWeatherWind HumidityBarometerVisibility
9:20 PM
Sat, Aug 27
73 °FPassing clouds.3 mph50%30.01 "HgN/A
8:50 PM77 °FSunny.3 mph44%30.01 "Hg10 mi
8:20 PM79 °FPassing clouds.6 mph42%30.01 "HgN/A
7:50 PM82 °FThunderstorms. Passing clouds.10 mph35%30.01 "HgN/A
7:20 PM81 °FThunderstorms. Passing clouds.5 mph42%30.04 "HgN/A
6:50 PM81 °FThundershowers. Passing clouds.9 mph45%30.04 "HgN/A
6:20 PM82 °FThundershowers. Passing clouds.6 mph42%30.04 "HgN/A
5:50 PM84 °FPassing clouds.10 mph40%30.04 "HgN/A
5:20 PM88 °FPassing clouds.12 mph33%30.04 "HgN/A
4:50 PM90 °FSunny.7 mph41%30.04 "Hg10 mi
4:20 PM90 °FPassing clouds.7 mph41%30.04 "HgN/A
3:50 PM90 °FPassing clouds.6 mph41%30.04 "HgN/A
3:20 PM88 °FPassing clouds.6 mph46%30.07 "HgN/A
2:50 PM88 °FPassing clouds.6 mph46%30.07 "HgN/A
2:20 PM86 °FPassing clouds.6 mph49%30.07 "HgN/A
1:50 PM86 °FPassing clouds.7 mph49%30.07 "HgN/A
1:20 PM84 °FPassing clouds.6 mph51%30.09 "HgN/A
12:50 PM82 °FPassing clouds.6 mph51%30.09 "HgN/A
12:20 PM82 °FSunny.3 mph55%30.09 "Hg10 mi
11:50 AM81 °FPassing clouds.6 mph54%30.09 "HgN/A
11:20 AM79 °FPassing clouds.6 mph58%30.09 "HgN/A
10:50 AM77 °FPassing clouds.6 mph61%30.12 "HgN/A
10:20 AM75 °FPassing clouds.6 mph65%30.12 "HgN/A
9:50 AM73 °FSunny.6 mph65%30.12 "Hg10 mi
9:20 AM70 °FPassing clouds.6 mph73%30.12 "HgN/A
8:50 AM70 °FSunny.6 mph73%30.12 "Hg10 mi
8:20 AM70 °FSunny.5 mph73%30.12 "Hg10 mi
7:50 AM66 °FSunny.2 mph88%30.12 "Hg10 mi
7:20 AM64 °FClear.2 mph88%30.12 "Hg10 mi
6:50 AM63 °FClear.1 mph100%30.09 "Hg10 mi
6:20 AM64 °FClear.2 mph94%30.09 "Hg10 mi
5:50 AM63 °FClear.3 mph94%30.09 "Hg10 mi
5:20 AM63 °FClear.1 mph100%30.12 "Hg10 mi
4:50 AM64 °FClear.1 mph94%30.12 "Hg10 mi
4:20 AM64 °FClear.2 mph94%30.12 "Hg10 mi
3:50 AM64 °FClear.2 mph94%30.12 "Hg10 mi
3:20 AM64 °FMild.2 mph94%30.12 "HgN/A
2:50 AM66 °FClear.3 mph88%30.12 "Hg10 mi
2:20 AM66 °FClear.2 mph94%30.09 "Hg10 mi
1:50 AM68 °FClear.2 mph88%30.09 "Hg10 mi
1:20 AM70 °FClear.2 mph83%30.09 "Hg10 mi
12:50 AM70 °FClear.2 mph83%30.09 "Hg10 mi
12:20 AM70 °FPassing clouds.3 mph83%30.09 "HgN/A
11:50 PM
Fri, Aug 26
72 °FClear.2 mph78%30.09 "Hg10 mi
11:20 PM73 °FClear.1 mph78%30.09 "Hg10 mi
10:50 PM72 °FPassing clouds.3 mph78%30.09 "HgN/A
10:20 PM75 °FClear.1 mph69%30.07 "Hg10 mi
Weather by CustomWeather, © 2016

See weather overviewHow to use our weather pages